Location: Unspecified
(47.5840°N, 122.3000°W)
Time: 19:15:51
(UTC+00:00)

IRIDIUM 114 - Pass Details

Date: 17 March 2026
Orbit: 776 x 779 km, 86.4° (Epoch: 14 April)

Event Time Altitude Azimuth Distance (km) Brightness Sun altitude
Exits shadow 06:30:24 21° 297° (WNW) 1,698 6.5 -38.2°
Drops below altitude 10° 06:33:48 10° 337° (NNW) 2,342 7.5 -38.6°
Sets 06:36:43 0° 353° (N) 3,274 8.3 -38.8°
